Flag for Canada Weather past 2 weeks in Moose Jaw, Saskatchewan, Canada

Now
32 °F

Passing clouds.


Feels Like: 26 °F
Forecast: 27 / 52 °F
Wind: 7 mph from Northeast

Location: Regina Weather Station

Current Time: Apr 21, 2015 at 3:02:52 AM

Latest Report: Apr 21, 2015 at 2:00 AM


Visibility: 15 mi

Pressure: 29.95 "Hg

Humidity: 80%

Dew point: 27 °F

Location of Moose JawLocation

Historic Weather in Moose Jaw — Graph

°F

Moose Jaw temperature yesterday

Maximum temperature yesterday: 52 °F (at 3:00 PM)
Minimum temperature yesterday: 19 °F (at 5:00 AM)
Average temperature yesterday: 37 °F

Past Weeks' High & Low Weather Summary

 TemperatureHumidityPressure
High70 °F (Apr 11, 1:00 PM)100% (Apr 7, 5:00 AM)30.27 "Hg (Apr 7, 5:00 AM)
Low19 °F (Apr 20, 5:00 AM)18% (Apr 13, 6:00 PM)29.40 "Hg (Apr 11, 6:00 PM)
Average43 °F58%29.97 "Hg
* Reported Apr 6 2:00 AM — Apr 21 2:00 AM, Moose Jaw, Weather by CustomWeather, © 2015

Note: Actual official high and low records may vary slightly from our data, if they occured in-between our weather recording intervals... More about our weather records

Advertising

Moose Jaw weather history for previous 24 hours

 ConditionsComfort  
Time TempWeatherWind HumidityBarometerVisibility
2:00 AM
Tue, Apr 21
32 °FPassing clouds.7 mph80%29.95 "Hg15 mi
1:00 AM34 °FPartly cloudy.3 mph81%29.95 "Hg15 mi
12:00 AM36 °FMostly cloudy.7 mph81%29.93 "Hg15 mi
11:00 PM
Mon, Apr 20
37 °FMostly cloudy.12 mph75%29.91 "Hg15 mi
10:00 PM37 °FPassing clouds.13 mph70%29.91 "Hg15 mi
9:00 PM39 °FPassing clouds.18 mph61%29.90 "Hg15 mi
8:00 PM41 °FScattered clouds.14 mph53%29.90 "Hg15 mi
7:00 PM45 °FPassing clouds.14 mph39%29.89 "Hg15 mi
6:00 PM50 °FScattered clouds.9 mph28%29.88 "Hg15 mi
5:00 PM52 °FScattered clouds.10 mph26%29.90 "Hg15 mi
4:00 PM52 °FPartly sunny.12 mph26%29.92 "Hg15 mi
3:00 PM52 °FPassing clouds.14 mph26%29.93 "Hg15 mi
2:00 PM50 °FPassing clouds.15 mph28%29.95 "Hg15 mi
1:00 PM48 °FPassing clouds.12 mph25%29.97 "Hg15 mi
12:00 PM46 °FPassing clouds.9 mph29%29.99 "Hg12 mi
11:00 AM45 °FPassing clouds.15 mph31%30.01 "Hg15 mi
10:00 AM39 °FPassing clouds.13 mph42%30.03 "Hg15 mi
9:00 AM36 °FPassing clouds.12 mph52%30.02 "Hg15 mi
8:00 AM30 °FPassing clouds.8 mph69%30.03 "Hg15 mi
7:00 AM23 °FPassing clouds.6 mph93%30.04 "Hg15 mi
6:00 AM21 °FPassing clouds.7 mph86%30.04 "Hg15 mi
5:00 AM19 °FPassing clouds.8 mph93%30.04 "Hg15 mi
4:00 AM21 °FClear.7 mph86%30.04 "Hg15 mi
3:00 AM23 °FClear.6 mph86%30.05 "Hg15 mi
Weather by CustomWeather, © 2015

See weather overviewHow to use our weather pages